owner,sensor,date,latitude,longitude,sea_surface_height_above_sea_level,qcFlag 
COMPS,ioos:station:USF.COMPS:ARP:1,2009-01-01T00:00:00Z,28.4330,-82.6670,-0.159,1111122 
COMPS,ioos:station:USF.COMPS:ARP:1,2009-01-01T00:06:00Z,28.4330,-82.6670,-0.164,1111122 
COMPS,ioos:station:USF.COMPS:ARP:1,2009-01-01T00:12:00Z,28.4330,-82.6670,-0.173,1111122 
COMPS,ioos:station:USF.COMPS:ARP:1,2009-01-01T00:18:00Z,28.4330,-82.6670,-0.177,1111122 
COMPS,ioos:station:USF.COMPS:ARP:1,2009-01-01T00:24:00Z,28.4330,-82.6670,-0.185,1111122 
COMPS,ioos:station:USF.COMPS:ARP:1,2009-01-01T00:30:00Z,28.4330,-82.6670,-0.196,1111122 
COMPS,ioos:station:USF.COMPS:ARP:1,2009-01-01T00:36:00Z,28.4330,-82.6670,-0.207,1111122 
COMPS,ioos:station:USF.COMPS:ARP:1,2009-01-01T00:42:00Z,28.4330,-82.6670,-0.219,1111122 
COMPS,ioos:station:USF.COMPS:ARP:1,2009-01-01T00:48:00Z,28.4330,-82.6670,-0.23,1111122 
COMPS,ioos:station:USF.COMPS:ARP:1,2009-01-01T00:54:00Z,28.4330,-82.6670,-0.241,1111122 
COMPS,ioos:station:USF.COMPS:ARP:1,2009-01-01T01:00:00Z,28.4330,-82.6670,-0.251,1111122 
COMPS,ioos:station:USF.COMPS:ARP:1,2009-01-01T01:06:00Z,28.4330,-82.6670,-0.263,1111122 
COMPS,ioos:station:USF.COMPS:ARP:1,2009-01-01T01:12:00Z,28.4330,-82.6670,-0.273,1111122 
COMPS,ioos:station:USF.COMPS:ARP:1,2009-01-01T01:18:00Z,28.4330,-82.6670,-0.282,1111122 
COMPS,ioos:station:USF.COMPS:ARP:1,2009-01-01T01:24:00Z,28.4330,-82.6670,-0.293,1111122 
COMPS,ioos:station:USF.COMPS:ARP:1,2009-01-01T01:30:00Z,28.4330,-82.6670,-0.302,1111122 
COMPS,ioos:station:USF.COMPS:ARP:1,2009-01-01T01:36:00Z,28.4330,-82.6670,-0.31,1111122 
COMPS,ioos:station:USF.COMPS:ARP:1,2009-01-01T01:42:00Z,28.4330,-82.6670,-0.319,1111122 
COMPS,ioos:station:USF.COMPS:ARP:1,2009-01-01T01:48:00Z,28.4330,-82.6670,-0.327,1111122 
COMPS,ioos:station:USF.COMPS:ARP:1,2009-01-01T01:54:00Z,28.4330,-82.6670,-0.335,1111122 
COMPS,ioos:station:USF.COMPS:ARP:1,2009-01-01T02:00:00Z,28.4330,-82.6670,-0.341,1111122 
COMPS,ioos:station:USF.COMPS:ARP:1,2009-01-01T02:06:00Z,28.4330,-82.6670,-0.349,1111122 
COMPS,ioos:station:USF.COMPS:ARP:1,2009-01-01T02:12:00Z,28.4330,-82.6670,-0.357,1111122 
COMPS,ioos:station:USF.COMPS:ARP:1,2009-01-01T02:18:00Z,28.4330,-82.6670,-0.363,1111122 
COMPS,ioos:station:USF.COMPS:ARP:1,2009-01-01T02:24:00Z,28.4330,-82.6670,-0.369,1111122 
COMPS,ioos:station:USF.COMPS:ARP:1,2009-01-01T02:30:00Z,28.4330,-82.6670,-0.374,1111122 
COMPS,ioos:station:USF.COMPS:ARP:1,2009-01-01T02:36:00Z,28.4330,-82.6670,-0.38,1111122 
COMPS,ioos:station:USF.COMPS:ARP:1,2009-01-01T02:42:00Z,28.4330,-82.6670,-0.384,1111122 
COMPS,ioos:station:USF.COMPS:ARP:1,2009-01-01T02:48:00Z,28.4330,-82.6670,-0.389,1111122 
COMPS,ioos:station:USF.COMPS:ARP:1,2009-01-01T02:54:00Z,28.4330,-82.6670,-0.392,1111122 
COMPS,ioos:station:USF.COMPS:ARP:1,2009-01-01T03:00:00Z,28.4330,-82.6670,-0.394,1111122 
COMPS,ioos:station:USF.COMPS:ARP:1,2009-01-01T03:06:00Z,28.4330,-82.6670,-0.395,1111122 
COMPS,ioos:station:USF.COMPS:ARP:1,2009-01-01T03:12:00Z,28.4330,-82.6670,-0.395,1111122 
COMPS,ioos:station:USF.COMPS:ARP:1,2009-01-01T03:18:00Z,28.4330,-82.6670,-0.392,1111122 
COMPS,ioos:station:USF.COMPS:ARP:1,2009-01-01T03:24:00Z,28.4330,-82.6670,-0.39,1111122 
COMPS,ioos:station:USF.COMPS:ARP:1,2009-01-01T03:30:00Z,28.4330,-82.6670,-0.385,1111122 
COMPS,ioos:station:USF.COMPS:ARP:1,2009-01-01T03:36:00Z,28.4330,-82.6670,-0.379,1111122 
COMPS,ioos:station:USF.COMPS:ARP:1,2009-01-01T03:42:00Z,28.4330,-82.6670,-0.373,1111122 
COMPS,ioos:station:USF.COMPS:ARP:1,2009-01-01T03:48:00Z,28.4330,-82.6670,-0.366,1111122 
COMPS,ioos:station:USF.COMPS:ARP:1,2009-01-01T03:54:00Z,28.4330,-82.6670,-0.359,1111122 
COMPS,ioos:station:USF.COMPS:ARP:1,2009-01-01T04:00:00Z,28.4330,-82.6670,-0.351,1111122 
COMPS,ioos:station:USF.COMPS:ARP:1,2009-01-01T04:06:00Z,28.4330,-82.6670,-0.343,1111122 
COMPS,ioos:station:USF.COMPS:ARP:1,2009-01-01T04:12:00Z,28.4330,-82.6670,-0.335,1111122 
COMPS,ioos:station:USF.COMPS:ARP:1,2009-01-01T04:18:00Z,28.4330,-82.6670,-0.325,1111122 
COMPS,ioos:station:USF.COMPS:ARP:1,2009-01-01T04:24:00Z,28.4330,-82.6670,-0.317,1111122 
COMPS,ioos:station:USF.COMPS:ARP:1,2009-01-01T04:30:00Z,28.4330,-82.6670,-0.307,1111122 
COMPS,ioos:station:USF.COMPS:ARP:1,2009-01-01T04:36:00Z,28.4330,-82.6670,-0.295,1111122 
COMPS,ioos:station:USF.COMPS:ARP:1,2009-01-01T04:42:00Z,28.4330,-82.6670,-0.284,1111122 
COMPS,ioos:station:USF.COMPS:ARP:1,2009-01-01T04:48:00Z,28.4330,-82.6670,-0.272,1111122 
COMPS,ioos:station:USF.COMPS:ARP:1,2009-01-01T04:54:00Z,28.4330,-82.6670,-0.259,1111122 
COMPS,ioos:station:USF.COMPS:ARP:1,2009-01-01T05:00:00Z,28.4330,-82.6670,-0.246,1111122 
COMPS,ioos:station:USF.COMPS:ARP:1,2009-01-01T05:06:00Z,28.4330,-82.6670,-0.234,1111122 
COMPS,ioos:station:USF.COMPS:ARP:1,2009-01-01T05:12:00Z,28.4330,-82.6670,-0.221,1111122 
COMPS,ioos:station:USF.COMPS:ARP:1,2009-01-01T05:18:00Z,28.4330,-82.6670,-0.208,1111122 
COMPS,ioos:station:USF.COMPS:ARP:1,2009-01-01T05:24:00Z,28.4330,-82.6670,-0.197,1111122 
COMPS,ioos:station:USF.COMPS:ARP:1,2009-01-01T05:30:00Z,28.4330,-82.6670,-0.184,1111122 
COMPS,ioos:station:USF.COMPS:ARP:1,2009-01-01T05:36:00Z,28.4330,-82.6670,-0.175,1111122 
COMPS,ioos:station:USF.COMPS:ARP:1,2009-01-01T05:42:00Z,28.4330,-82.6670,-0.166,1111122 
COMPS,ioos:station:USF.COMPS:ARP:1,2009-01-01T05:48:00Z,28.4330,-82.6670,-0.16,1111122 
COMPS,ioos:station:USF.COMPS:ARP:1,2009-01-01T05:54:00Z,28.4330,-82.6670,-0.154,1111122 
COMPS,ioos:station:USF.COMPS:ARP:1,2009-01-01T06:00:00Z,28.4330,-82.6670,-0.152,1111122 
COMPS,ioos:station:USF.COMPS:ARP:1,2009-01-01T06:06:00Z,28.4330,-82.6670,-0.15,1111122 
COMPS,ioos:station:USF.COMPS:ARP:1,2009-01-01T06:12:00Z,28.4330,-82.6670,-0.145,1111122 
COMPS,ioos:station:USF.COMPS:ARP:1,2009-01-01T06:18:00Z,28.4330,-82.6670,-0.14,1111122 
COMPS,ioos:station:USF.COMPS:ARP:1,2009-01-01T06:24:00Z,28.4330,-82.6670,-0.136,1111122 
COMPS,ioos:station:USF.COMPS:ARP:1,2009-01-01T06:30:00Z,28.4330,-82.6670,-0.129,1111122 
COMPS,ioos:station:USF.COMPS:ARP:1,2009-01-01T06:36:00Z,28.4330,-82.6670,-0.122,1111122 
COMPS,ioos:station:USF.COMPS:ARP:1,2009-01-01T06:42:00Z,28.4330,-82.6670,-0.122,1111122 
COMPS,ioos:station:USF.COMPS:ARP:1,2009-01-01T06:48:00Z,28.4330,-82.6670,-0.122,1111122 
COMPS,ioos:station:USF.COMPS:ARP:1,2009-01-01T06:54:00Z,28.4330,-82.6670,-0.125,1111122 
COMPS,ioos:station:USF.COMPS:ARP:1,2009-01-01T07:00:00Z,28.4330,-82.6670,-0.123,1111122 
COMPS,ioos:station:USF.COMPS:ARP:1,2009-01-01T07:06:00Z,28.4330,-82.6670,-0.123,1111122 
COMPS,ioos:station:USF.COMPS:ARP:1,2009-01-01T07:12:00Z,28.4330,-82.6670,-0.12,1111122 
COMPS,ioos:station:USF.COMPS:ARP:1,2009-01-01T07:18:00Z,28.4330,-82.6670,-0.121,1111122 
COMPS,ioos:station:USF.COMPS:ARP:1,2009-01-01T07:24:00Z,28.4330,-82.6670,-0.116,1111122 
COMPS,ioos:station:USF.COMPS:ARP:1,2009-01-01T07:30:00Z,28.4330,-82.6670,-0.116,1111122 
COMPS,ioos:station:USF.COMPS:ARP:1,2009-01-01T07:36:00Z,28.4330,-82.6670,-0.118,1111122 
COMPS,ioos:station:USF.COMPS:ARP:1,2009-01-01T07:42:00Z,28.4330,-82.6670,-0.12,1111122 
COMPS,ioos:station:USF.COMPS:ARP:1,2009-01-01T07:48:00Z,28.4330,-82.6670,-0.123,1111122 
COMPS,ioos:station:USF.COMPS:ARP:1,2009-01-01T07:54:00Z,28.4330,-82.6670,-0.124,1111122 
COMPS,ioos:station:USF.COMPS:ARP:1,2009-01-01T08:00:00Z,28.4330,-82.6670,-0.127,1111122 
COMPS,ioos:station:USF.COMPS:ARP:1,2009-01-01T08:06:00Z,28.4330,-82.6670,-0.129,1111122 
COMPS,ioos:station:USF.COMPS:ARP:1,2009-01-01T08:12:00Z,28.4330,-82.6670,-0.131,1111122 
COMPS,ioos:station:USF.COMPS:ARP:1,2009-01-01T08:18:00Z,28.4330,-82.6670,-0.136,1111122 
COMPS,ioos:station:USF.COMPS:ARP:1,2009-01-01T08:24:00Z,28.4330,-82.6670,-0.138,1111122 
COMPS,ioos:station:USF.COMPS:ARP:1,2009-01-01T08:30:00Z,28.4330,-82.6670,-0.147,1111122 
COMPS,ioos:station:USF.COMPS:ARP:1,2009-01-01T08:36:00Z,28.4330,-82.6670,-0.152,1111122 
COMPS,ioos:station:USF.COMPS:ARP:1,2009-01-01T08:42:00Z,28.4330,-82.6670,-0.161,1111122 
COMPS,ioos:station:USF.COMPS:ARP:1,2009-01-01T08:48:00Z,28.4330,-82.6670,-0.169,1111122 
COMPS,ioos:station:USF.COMPS:ARP:1,2009-01-01T08:54:00Z,28.4330,-82.6670,-0.178,1111122 
COMPS,ioos:station:USF.COMPS:ARP:1,2009-01-01T09:00:00Z,28.4330,-82.6670,-0.18,1111122 
COMPS,ioos:station:USF.COMPS:ARP:1,2009-01-01T09:06:00Z,28.4330,-82.6670,-0.187,1111122 
COMPS,ioos:station:USF.COMPS:ARP:1,2009-01-01T09:12:00Z,28.4330,-82.6670,-0.196,1111122 
COMPS,ioos:station:USF.COMPS:ARP:1,2009-01-01T09:18:00Z,28.4330,-82.6670,-0.206,1111122 
COMPS,ioos:station:USF.COMPS:ARP:1,2009-01-01T09:24:00Z,28.4330,-82.6670,-0.214,1111122 
COMPS,ioos:station:USF.COMPS:ARP:1,2009-01-01T09:30:00Z,28.4330,-82.6670,-0.224,1111122 
COMPS,ioos:station:USF.COMPS:ARP:1,2009-01-01T09:36:00Z,28.4330,-82.6670,-0.235,1111122 
COMPS,ioos:station:USF.COMPS:ARP:1,2009-01-01T09:42:00Z,28.4330,-82.6670,-0.246,1111122 
COMPS,ioos:station:USF.COMPS:ARP:1,2009-01-01T09:48:00Z,28.4330,-82.6670,-0.259,1111122 
COMPS,ioos:station:USF.COMPS:ARP:1,2009-01-01T09:54:00Z,28.4330,-82.6670,-0.269,1111122 
COMPS,ioos:station:USF.COMPS:ARP:1,2009-01-01T10:00:00Z,28.4330,-82.6670,-0.279,1111122 
COMPS,ioos:station:USF.COMPS:ARP:1,2009-01-01T10:06:00Z,28.4330,-82.6670,-0.288,1111122 
COMPS,ioos:station:USF.COMPS:ARP:1,2009-01-01T10:12:00Z,28.4330,-82.6670,-0.296,1111122 
COMPS,ioos:station:USF.COMPS:ARP:1,2009-01-01T10:18:00Z,28.4330,-82.6670,-0.305,1111122 
COMPS,ioos:station:USF.COMPS:ARP:1,2009-01-01T10:24:00Z,28.4330,-82.6670,-0.317,1111122 
COMPS,ioos:station:USF.COMPS:ARP:1,2009-01-01T10:30:00Z,28.4330,-82.6670,-0.327,1111122 
COMPS,ioos:station:USF.COMPS:ARP:1,2009-01-01T10:36:00Z,28.4330,-82.6670,-0.337,1111122 
COMPS,ioos:station:USF.COMPS:ARP:1,2009-01-01T10:42:00Z,28.4330,-82.6670,-0.347,1111122 
COMPS,ioos:station:USF.COMPS:ARP:1,2009-01-01T10:48:00Z,28.4330,-82.6670,-0.356,1111122 
COMPS,ioos:station:USF.COMPS:ARP:1,2009-01-01T10:54:00Z,28.4330,-82.6670,-0.367,1111122 
COMPS,ioos:station:USF.COMPS:ARP:1,2009-01-01T11:00:00Z,28.4330,-82.6670,-0.377,1111122 
COMPS,ioos:station:USF.COMPS:ARP:1,2009-01-01T11:06:00Z,28.4330,-82.6670,-0.387,1111122 
COMPS,ioos:station:USF.COMPS:ARP:1,2009-01-01T11:12:00Z,28.4330,-82.6670,-0.397,1111122 
COMPS,ioos:station:USF.COMPS:ARP:1,2009-01-01T11:18:00Z,28.4330,-82.6670,-0.408,1111122 
COMPS,ioos:station:USF.COMPS:ARP:1,2009-01-01T11:24:00Z,28.4330,-82.6670,-0.418,1111122 
COMPS,ioos:station:USF.COMPS:ARP:1,2009-01-01T11:30:00Z,28.4330,-82.6670,-0.428,1111122 
COMPS,ioos:station:USF.COMPS:ARP:1,2009-01-01T11:36:00Z,28.4330,-82.6670,-0.437,1111122 
COMPS,ioos:station:USF.COMPS:ARP:1,2009-01-01T11:42:00Z,28.4330,-82.6670,-0.446,1111122 
COMPS,ioos:station:USF.COMPS:ARP:1,2009-01-01T11:48:00Z,28.4330,-82.6670,-0.455,1111122 
COMPS,ioos:station:USF.COMPS:ARP:1,2009-01-01T11:54:00Z,28.4330,-82.6670,-0.464,1111122 
COMPS,ioos:station:USF.COMPS:ARP:1,2009-01-01T12:00:00Z,28.4330,-82.6670,-0.473,1111122 
COMPS,ioos:station:USF.COMPS:ARP:1,2009-01-01T12:06:00Z,28.4330,-82.6670,-0.481,1111122 
COMPS,ioos:station:USF.COMPS:ARP:1,2009-01-01T12:12:00Z,28.4330,-82.6670,-0.489,1111122 
COMPS,ioos:station:USF.COMPS:ARP:1,2009-01-01T12:18:00Z,28.4330,-82.6670,-0.496,1111122 
COMPS,ioos:station:USF.COMPS:ARP:1,2009-01-01T12:24:00Z,28.4330,-82.6670,-0.504,1111122 
COMPS,ioos:station:USF.COMPS:ARP:1,2009-01-01T12:30:00Z,28.4330,-82.6670,-0.512,1111122 
COMPS,ioos:station:USF.COMPS:ARP:1,2009-01-01T12:36:00Z,28.4330,-82.6670,-0.519,1111122 
COMPS,ioos:station:USF.COMPS:ARP:1,2009-01-01T12:42:00Z,28.4330,-82.6670,-0.526,1111122 
COMPS,ioos:station:USF.COMPS:ARP:1,2009-01-01T12:48:00Z,28.4330,-82.6670,-0.533,1111122 
COMPS,ioos:station:USF.COMPS:ARP:1,2009-01-01T12:54:00Z,28.4330,-82.6670,-0.54,1111122 
COMPS,ioos:station:USF.COMPS:ARP:1,2009-01-01T13:00:00Z,28.4330,-82.6670,-0.547,1111122 
COMPS,ioos:station:USF.COMPS:ARP:1,2009-01-01T13:06:00Z,28.4330,-82.6670,-0.554,1111122 
COMPS,ioos:station:USF.COMPS:ARP:1,2009-01-01T13:12:00Z,28.4330,-82.6670,-0.561,1111122 
COMPS,ioos:station:USF.COMPS:ARP:1,2009-01-01T13:18:00Z,28.4330,-82.6670,-0.57,1111122 
COMPS,ioos:station:USF.COMPS:ARP:1,2009-01-01T13:24:00Z,28.4330,-82.6670,-0.577,1111122 
COMPS,ioos:station:USF.COMPS:ARP:1,2009-01-01T13:30:00Z,28.4330,-82.6670,-0.583,1111122 
COMPS,ioos:station:USF.COMPS:ARP:1,2009-01-01T13:36:00Z,28.4330,-82.6670,-0.578,1111122 
COMPS,ioos:station:USF.COMPS:ARP:1,2009-01-01T13:42:00Z,28.4330,-82.6670,-0.569,1111122 
COMPS,ioos:station:USF.COMPS:ARP:1,2009-01-01T13:48:00Z,28.4330,-82.6670,-0.569,1111122 
COMPS,ioos:station:USF.COMPS:ARP:1,2009-01-01T13:54:00Z,28.4330,-82.6670,-0.568,1111122 
COMPS,ioos:station:USF.COMPS:ARP:1,2009-01-01T14:00:00Z,28.4330,-82.6670,-0.561,1111122 
COMPS,ioos:station:USF.COMPS:ARP:1,2009-01-01T14:06:00Z,28.4330,-82.6670,-0.559,1111122 
COMPS,ioos:station:USF.COMPS:ARP:1,2009-01-01T14:12:00Z,28.4330,-82.6670,-0.557,1111122 
COMPS,ioos:station:USF.COMPS:ARP:1,2009-01-01T14:18:00Z,28.4330,-82.6670,-0.557,1111122 
COMPS,ioos:station:USF.COMPS:ARP:1,2009-01-01T14:24:00Z,28.4330,-82.6670,-0.557,1111122 
COMPS,ioos:station:USF.COMPS:ARP:1,2009-01-01T14:30:00Z,28.4330,-82.6670,-0.559,1111122 
COMPS,ioos:station:USF.COMPS:ARP:1,2009-01-01T14:36:00Z,28.4330,-82.6670,-0.561,1111122 
COMPS,ioos:station:USF.COMPS:ARP:1,2009-01-01T14:42:00Z,28.4330,-82.6670,-0.561,1111122 
COMPS,ioos:station:USF.COMPS:ARP:1,2009-01-01T14:48:00Z,28.4330,-82.6670,-0.562,1111122 
COMPS,ioos:station:USF.COMPS:ARP:1,2009-01-01T14:54:00Z,28.4330,-82.6670,-0.562,1111122 
COMPS,ioos:station:USF.COMPS:ARP:1,2009-01-01T15:00:00Z,28.4330,-82.6670,-0.561,1111122 
COMPS,ioos:station:USF.COMPS:ARP:1,2009-01-01T15:06:00Z,28.4330,-82.6670,-0.559,1111122 
COMPS,ioos:station:USF.COMPS:ARP:1,2009-01-01T15:12:00Z,28.4330,-82.6670,-0.558,1111122 
COMPS,ioos:station:USF.COMPS:ARP:1,2009-01-01T15:18:00Z,28.4330,-82.6670,-0.557,1111122 
COMPS,ioos:station:USF.COMPS:ARP:1,2009-01-01T15:24:00Z,28.4330,-82.6670,-0.557,1111122 
COMPS,ioos:station:USF.COMPS:ARP:1,2009-01-01T15:30:00Z,28.4330,-82.6670,-0.558,1111122 
COMPS,ioos:station:USF.COMPS:ARP:1,2009-01-01T15:36:00Z,28.4330,-82.6670,-0.559,1111122 
COMPS,ioos:station:USF.COMPS:ARP:1,2009-01-01T15:42:00Z,28.4330,-82.6670,-0.56,1111122 
COMPS,ioos:station:USF.COMPS:ARP:1,2009-01-01T15:48:00Z,28.4330,-82.6670,-0.561,1111122 
COMPS,ioos:station:USF.COMPS:ARP:1,2009-01-01T15:54:00Z,28.4330,-82.6670,-0.563,1111122 
COMPS,ioos:station:USF.COMPS:ARP:1,2009-01-01T16:00:00Z,28.4330,-82.6670,-0.564,1111122 
COMPS,ioos:station:USF.COMPS:ARP:1,2009-01-01T16:06:00Z,28.4330,-82.6670,-0.565,1111122 
COMPS,ioos:station:USF.COMPS:ARP:1,2009-01-01T16:12:00Z,28.4330,-82.6670,-0.566,1111122 
COMPS,ioos:station:USF.COMPS:ARP:1,2009-01-01T16:18:00Z,28.4330,-82.6670,-0.565,1111122 
COMPS,ioos:station:USF.COMPS:ARP:1,2009-01-01T16:24:00Z,28.4330,-82.6670,-0.563,1111122 
COMPS,ioos:station:USF.COMPS:ARP:1,2009-01-01T16:30:00Z,28.4330,-82.6670,-0.561,1111122 
COMPS,ioos:station:USF.COMPS:ARP:1,2009-01-01T16:36:00Z,28.4330,-82.6670,-0.561,1111122 
COMPS,ioos:station:USF.COMPS:ARP:1,2009-01-01T16:42:00Z,28.4330,-82.6670,-0.561,1111122 
COMPS,ioos:station:USF.COMPS:ARP:1,2009-01-01T16:48:00Z,28.4330,-82.6670,-0.562,1111122 
COMPS,ioos:station:USF.COMPS:ARP:1,2009-01-01T16:54:00Z,28.4330,-82.6670,-0.563,1111122 
COMPS,ioos:station:USF.COMPS:ARP:1,2009-01-01T17:00:00Z,28.4330,-82.6670,-0.563,1111122 
COMPS,ioos:station:USF.COMPS:ARP:1,2009-01-01T17:06:00Z,28.4330,-82.6670,-0.561,1111122 
COMPS,ioos:station:USF.COMPS:ARP:1,2009-01-01T17:12:00Z,28.4330,-82.6670,-0.562,1111122 
COMPS,ioos:station:USF.COMPS:ARP:1,2009-01-01T17:18:00Z,28.4330,-82.6670,-0.563,1111122 
COMPS,ioos:station:USF.COMPS:ARP:1,2009-01-01T17:24:00Z,28.4330,-82.6670,-0.564,1111122 
COMPS,ioos:station:USF.COMPS:ARP:1,2009-01-01T17:30:00Z,28.4330,-82.6670,-0.565,1111122 
COMPS,ioos:station:USF.COMPS:ARP:1,2009-01-01T17:36:00Z,28.4330,-82.6670,-0.568,1111122 
COMPS,ioos:station:USF.COMPS:ARP:1,2009-01-01T17:42:00Z,28.4330,-82.6670,-0.57,1111122 
COMPS,ioos:station:USF.COMPS:ARP:1,2009-01-01T17:48:00Z,28.4330,-82.6670,-0.57,1111122 
COMPS,ioos:station:USF.COMPS:ARP:1,2009-01-01T17:54:00Z,28.4330,-82.6670,-0.57,1111122 
COMPS,ioos:station:USF.COMPS:ARP:1,2009-01-01T18:00:00Z,28.4330,-82.6670,-0.568,1111122 
COMPS,ioos:station:USF.COMPS:ARP:1,2009-01-01T18:06:00Z,28.4330,-82.6670,-0.567,1111122 
COMPS,ioos:station:USF.COMPS:ARP:1,2009-01-01T18:12:00Z,28.4330,-82.6670,-0.569,1111122 
COMPS,ioos:station:USF.COMPS:ARP:1,2009-01-01T18:18:00Z,28.4330,-82.6670,-0.57,1111122 
COMPS,ioos:station:USF.COMPS:ARP:1,2009-01-01T18:24:00Z,28.4330,-82.6670,-0.568,1111122 
COMPS,ioos:station:USF.COMPS:ARP:1,2009-01-01T18:30:00Z,28.4330,-82.6670,-0.566,1111122 
COMPS,ioos:station:USF.COMPS:ARP:1,2009-01-01T18:36:00Z,28.4330,-82.6670,-0.566,1111122 
COMPS,ioos:station:USF.COMPS:ARP:1,2009-01-01T18:42:00Z,28.4330,-82.6670,-0.568,1111122 
COMPS,ioos:station:USF.COMPS:ARP:1,2009-01-01T18:48:00Z,28.4330,-82.6670,-0.569,1111122 
COMPS,ioos:station:USF.COMPS:ARP:1,2009-01-01T18:54:00Z,28.4330,-82.6670,-0.569,1111122 
COMPS,ioos:station:USF.COMPS:ARP:1,2009-01-01T19:00:00Z,28.4330,-82.6670,-0.568,1111122 
COMPS,ioos:station:USF.COMPS:ARP:1,2009-01-01T19:06:00Z,28.4330,-82.6670,-0.568,1111122 
COMPS,ioos:station:USF.COMPS:ARP:1,2009-01-01T19:12:00Z,28.4330,-82.6670,-0.567,1111122 
COMPS,ioos:station:USF.COMPS:ARP:1,2009-01-01T19:18:00Z,28.4330,-82.6670,-0.567,1111122 
COMPS,ioos:station:USF.COMPS:ARP:1,2009-01-01T19:24:00Z,28.4330,-82.6670,-0.568,1111122 
COMPS,ioos:station:USF.COMPS:ARP:1,2009-01-01T19:30:00Z,28.4330,-82.6670,-0.57,1111122 
COMPS,ioos:station:USF.COMPS:ARP:1,2009-01-01T19:36:00Z,28.4330,-82.6670,-0.571,1111122 
COMPS,ioos:station:USF.COMPS:ARP:1,2009-01-01T19:42:00Z,28.4330,-82.6670,-0.57,1111122 
COMPS,ioos:station:USF.COMPS:ARP:1,2009-01-01T19:48:00Z,28.4330,-82.6670,-0.568,1111122 
COMPS,ioos:station:USF.COMPS:ARP:1,2009-01-01T19:54:00Z,28.4330,-82.6670,-0.567,1111122 
COMPS,ioos:station:USF.COMPS:ARP:1,2009-01-01T20:00:00Z,28.4330,-82.6670,-0.574,1111122 
COMPS,ioos:station:USF.COMPS:ARP:1,2009-01-01T20:06:00Z,28.4330,-82.6670,-0.569,1111122 
COMPS,ioos:station:USF.COMPS:ARP:1,2009-01-01T20:12:00Z,28.4330,-82.6670,-0.54,1111122 
COMPS,ioos:station:USF.COMPS:ARP:1,2009-01-01T20:18:00Z,28.4330,-82.6670,-0.512,1111122 
COMPS,ioos:station:USF.COMPS:ARP:1,2009-01-01T20:24:00Z,28.4330,-82.6670,-0.487,1111122 
COMPS,ioos:station:USF.COMPS:ARP:1,2009-01-01T20:30:00Z,28.4330,-82.6670,-0.455,1111122 
COMPS,ioos:station:USF.COMPS:ARP:1,2009-01-01T20:36:00Z,28.4330,-82.6670,-0.417,1111122 
COMPS,ioos:station:USF.COMPS:ARP:1,2009-01-01T20:42:00Z,28.4330,-82.6670,-0.381,1111122 
COMPS,ioos:station:USF.COMPS:ARP:1,2009-01-01T20:48:00Z,28.4330,-82.6670,-0.341,1111122 
COMPS,ioos:station:USF.COMPS:ARP:1,2009-01-01T20:54:00Z,28.4330,-82.6670,-0.3,1111122 
COMPS,ioos:station:USF.COMPS:ARP:1,2009-01-01T21:00:00Z,28.4330,-82.6670,-0.258,1111122 
COMPS,ioos:station:USF.COMPS:ARP:1,2009-01-01T21:06:00Z,28.4330,-82.6670,-0.218,1111122 
COMPS,ioos:station:USF.COMPS:ARP:1,2009-01-01T21:12:00Z,28.4330,-82.6670,-0.178,1111122 
COMPS,ioos:station:USF.COMPS:ARP:1,2009-01-01T21:18:00Z,28.4330,-82.6670,-0.142,1111122 
COMPS,ioos:station:USF.COMPS:ARP:1,2009-01-01T21:24:00Z,28.4330,-82.6670,-0.111,1111122 
COMPS,ioos:station:USF.COMPS:ARP:1,2009-01-01T21:30:00Z,28.4330,-82.6670,-0.083,1111122 
COMPS,ioos:station:USF.COMPS:ARP:1,2009-01-01T21:36:00Z,28.4330,-82.6670,-0.058,1111122 
COMPS,ioos:station:USF.COMPS:ARP:1,2009-01-01T21:42:00Z,28.4330,-82.6670,-0.04,1111122 
COMPS,ioos:station:USF.COMPS:ARP:1,2009-01-01T21:48:00Z,28.4330,-82.6670,-0.028,1111122 
COMPS,ioos:station:USF.COMPS:ARP:1,2009-01-01T21:54:00Z,28.4330,-82.6670,-0.011,1111122 
COMPS,ioos:station:USF.COMPS:ARP:1,2009-01-01T22:00:00Z,28.4330,-82.6670,0.0,1114422 
COMPS,ioos:station:USF.COMPS:ARP:1,2009-01-01T22:06:00Z,28.4330,-82.6670,-0.005,1111122 
COMPS,ioos:station:USF.COMPS:ARP:1,2009-01-01T22:12:00Z,28.4330,-82.6670,-0.011,1111122 
COMPS,ioos:station:USF.COMPS:ARP:1,2009-01-01T22:18:00Z,28.4330,-82.6670,-0.016,1111122 
COMPS,ioos:station:USF.COMPS:ARP:1,2009-01-01T22:24:00Z,28.4330,-82.6670,-0.036,1111122 
COMPS,ioos:station:USF.COMPS:ARP:1,2009-01-01T22:30:00Z,28.4330,-82.6670,-0.033,1111122 
COMPS,ioos:station:USF.COMPS:ARP:1,2009-01-01T22:36:00Z,28.4330,-82.6670,-0.026,1111122 
COMPS,ioos:station:USF.COMPS:ARP:1,2009-01-01T22:42:00Z,28.4330,-82.6670,-0.042,1111122 
COMPS,ioos:station:USF.COMPS:ARP:1,2009-01-01T22:48:00Z,28.4330,-82.6670,-0.035,1111122 
COMPS,ioos:station:USF.COMPS:ARP:1,2009-01-01T22:54:00Z,28.4330,-82.6670,-0.025,1111122 
COMPS,ioos:station:USF.COMPS:ARP:1,2009-01-01T23:00:00Z,28.4330,-82.6670,-0.02,1111122 
COMPS,ioos:station:USF.COMPS:ARP:1,2009-01-01T23:06:00Z,28.4330,-82.6670,-0.011,1111122 
COMPS,ioos:station:USF.COMPS:ARP:1,2009-01-01T23:12:00Z,28.4330,-82.6670,-0.008,1111122 
COMPS,ioos:station:USF.COMPS:ARP:1,2009-01-01T23:18:00Z,28.4330,-82.6670,-0.021,1111122 
COMPS,ioos:station:USF.COMPS:ARP:1,2009-01-01T23:24:00Z,28.4330,-82.6670,-0.04,1111122 
COMPS,ioos:station:USF.COMPS:ARP:1,2009-01-01T23:30:00Z,28.4330,-82.6670,-0.054,1111122 
COMPS,ioos:station:USF.COMPS:ARP:1,2009-01-01T23:36:00Z,28.4330,-82.6670,-0.067,1111122 
COMPS,ioos:station:USF.COMPS:ARP:1,2009-01-01T23:42:00Z,28.4330,-82.6670,-0.083,1111122 
COMPS,ioos:station:USF.COMPS:ARP:1,2009-01-01T23:48:00Z,28.4330,-82.6670,-0.101,1111122 
COMPS,ioos:station:USF.COMPS:ARP:1,2009-01-01T23:54:00Z,28.4330,-82.6670,-0.117,1111122 
COMPS,ioos:station:USF.COMPS:ARP:1,2009-01-02T00:00:00Z,28.4330,-82.6670,-0.126,1111122 
COMPS,ioos:station:USF.COMPS:ARP:1,2009-01-02T00:06:00Z,28.4330,-82.6670,-0.14,1111122 
COMPS,ioos:station:USF.COMPS:ARP:1,2009-01-02T00:12:00Z,28.4330,-82.6670,-0.146,1111122 
COMPS,ioos:station:USF.COMPS:ARP:1,2009-01-02T00:18:00Z,28.4330,-82.6670,-0.163,1111122 
COMPS,ioos:station:USF.COMPS:ARP:1,2009-01-02T00:24:00Z,28.4330,-82.6670,-0.178,1111122 
COMPS,ioos:station:USF.COMPS:ARP:1,2009-01-02T00:30:00Z,28.4330,-82.6670,-0.19,1111122 
COMPS,ioos:station:USF.COMPS:ARP:1,2009-01-02T00:36:00Z,28.4330,-82.6670,-0.203,1111122 
COMPS,ioos:station:USF.COMPS:ARP:1,2009-01-02T00:42:00Z,28.4330,-82.6670,-0.212,1111122 
COMPS,ioos:station:USF.COMPS:ARP:1,2009-01-02T00:48:00Z,28.4330,-82.6670,-0.222,1111122 
COMPS,ioos:station:USF.COMPS:ARP:1,2009-01-02T00:54:00Z,28.4330,-82.6670,-0.237,1111122 
COMPS,ioos:station:USF.COMPS:ARP:1,2009-01-02T01:00:00Z,28.4330,-82.6670,-0.247,1111122 
COMPS,ioos:station:USF.COMPS:ARP:1,2009-01-02T01:06:00Z,28.4330,-82.6670,-0.263,1111122 
COMPS,ioos:station:USF.COMPS:ARP:1,2009-01-02T01:12:00Z,28.4330,-82.6670,-0.276,1111122 
COMPS,ioos:station:USF.COMPS:ARP:1,2009-01-02T01:18:00Z,28.4330,-82.6670,-0.288,1111122 
COMPS,ioos:station:USF.COMPS:ARP:1,2009-01-02T01:24:00Z,28.4330,-82.6670,-0.301,1111122 
COMPS,ioos:station:USF.COMPS:ARP:1,2009-01-02T01:30:00Z,28.4330,-82.6670,-0.312,1111122 
COMPS,ioos:station:USF.COMPS:ARP:1,2009-01-02T01:36:00Z,28.4330,-82.6670,-0.322,1111122 
COMPS,ioos:station:USF.COMPS:ARP:1,2009-01-02T01:42:00Z,28.4330,-82.6670,-0.333,1111122 
COMPS,ioos:station:USF.COMPS:ARP:1,2009-01-02T01:48:00Z,28.4330,-82.6670,-0.345,1111122 
COMPS,ioos:station:USF.COMPS:ARP:1,2009-01-02T01:54:00Z,28.4330,-82.6670,-0.356,1111122 
COMPS,ioos:station:USF.COMPS:ARP:1,2009-01-02T02:00:00Z,28.4330,-82.6670,-0.366,1111122 
COMPS,ioos:station:USF.COMPS:ARP:1,2009-01-02T02:06:00Z,28.4330,-82.6670,-0.377,1111122 
COMPS,ioos:station:USF.COMPS:ARP:1,2009-01-02T02:12:00Z,28.4330,-82.6670,-0.387,1111122 
COMPS,ioos:station:USF.COMPS:ARP:1,2009-01-02T02:18:00Z,28.4330,-82.6670,-0.397,1111122 
COMPS,ioos:station:USF.COMPS:ARP:1,2009-01-02T02:24:00Z,28.4330,-82.6670,-0.407,1111122 
COMPS,ioos:station:USF.COMPS:ARP:1,2009-01-02T02:30:00Z,28.4330,-82.6670,-0.417,1111122 
COMPS,ioos:station:USF.COMPS:ARP:1,2009-01-02T02:36:00Z,28.4330,-82.6670,-0.426,1111122 
COMPS,ioos:station:USF.COMPS:ARP:1,2009-01-02T02:42:00Z,28.4330,-82.6670,-0.435,1111122 
COMPS,ioos:station:USF.COMPS:ARP:1,2009-01-02T02:48:00Z,28.4330,-82.6670,-0.445,1111122 